[[{"header":{"parameterUnit":"m.s-1","parameterCategory":1,"la1":30.2991,"la2":30.254,"lo1":-89.0895,"lo2":-89.0444,"dy":0.0017,"dx":0.0017,"nx":28,"ny":28,"refTime":"2025-09-11T03:00:00:Z","depth":0,"parameterNumber":2,"parameterNumberName":"U-component_of_WINDS"},"data":[0,0,0,0,0,0,0,0,0,0,0,0,0,0,0,0,0,0,0,0,0,0,0,0,0,0,0,0,0,0,0,0,0,0,0,0,0,0,0,0,0,0,0,0,0,0,0,0,0,0,0,0,0,0,0,0,0,0,-1.0091,-1.0091,0,-1.0064,-1.0064,-1.0064,-0.9993,-0.9992,-0.999,-0.9989,-0.9963,-0.9964,-0.9964,0,0,0,0,0,0,0,0,0,0,0,0,0,-1.0084,-1.0085,-1.0091,-1.0091,-1.009,-1.0064,-1.0064,-1.0064,-0.9993,-0.9991,-0.999,-0.9988,-0.9963,-0.9964,-0.9964,0,0,0,0,0,0,0,0,0,0,0,0,0,-1.0076,-1.0085,-1.0091,-1.0052,-1.0048,-1.0064,-1.0064,-1.0063,-0.9994,-0.9991,-0.9989,-0.9987,-0.9962,-0.9963,-0.9965,-1.0017,0,0,-0.9968,-0.9968,0,0,0,0,0,0,0,0,-1.0076,-1.0076,-1.0058,-1.0055,-1.0051,-1.003,-1.0052,-1.0048,-0.9994,-1.0015,-0.9989,-0.9986,-0.9987,-0.9986,-0.9986,-1.0015,-1.0014,-0.9968,-0.9969,-0.9969,-0.9969,0,0,0,0,0,0,0,-1.0077,-1.0077,-1.008,-1.0058,-1.0053,-1.0037,-1.0033,-1.0051,-1.0014,-1.0013,-1.0007,-1.0005,-0.9985,-0.9985,-0.9985,-1.0014,-0.9968,-0.9969,-0.997,-0.997,-1.0088,-1.0091,0,0,0,0,0,0,-1.0083,-1.0078,-1.0081,-1.008,-1.0058,-1.0039,-1.0035,-1.0039,-1.0013,-1.0007,-1.0007,-1.0002,-0.9984,-0.9984,-0.9984,-1.0045,-0.9969,-0.997,-0.9971,-1.0086,-1.0089,-1.0091,0,0,0,0,0,0,-1.0083,-1.0084,-1.0082,-1.0077,-1.0076,-1.0041,-1.0046,-1.0039,-1.004,-1.0009,-1.0003,-1.0014,-0.9983,-0.9982,-1.001,-1.0043,-0.9971,-0.9972,-1.0083,-1.0087,-1.009,-1.0167,0,0,0,0,0,0,-1.0083,-1.0084,-1.0103,-1.0078,-1.0076,-1.0108,-1.0048,-1.004,-1.0042,-1.0035,-1.0014,-1.0009,-0.9981,-1.0008,-1.0011,-1.0043,-0.9972,-1.008,-1.0085,-1.0089,-1.0162,-1.0173,-1.0183,0,0,0,0,0,-1.0083,-1.0125,-1.0104,-1.0105,-1.0099,-1.011,-1.0109,-1.0075,-1.0045,-1.0064,-1.0045,-1.0009,-1.0039,-1.0012,-1.0014,-1.0047,-1.0077,-1.0083,-1.0089,-1.0157,-1.0171,-1.0183,0,0,0,0,0,0,-1.0154,-1.0121,-1.0097,-1.0132,-1.0125,-1.0098,-1.0121,-1.0091,-1.0092,-1.0085,-1.0044,-1.004,-1.0074,-1.0063,-1.0033,-1.0098,-1.0053,-1.0059,-1.0104,-1.0117,-1.0128,-1.013,-0.9973,0,0,0,0,0,-1.0174,-1.0185,-1.0156,-1.019,-1.0187,-1.0155,-1.0159,-1.0134,-1.0124,-1.012,-1.0103,-1.0096,-1.0104,-1.011,-1.0115,-1.016,-1.0156,-1.0184,-1.0195,-1.0204,-1.021,-1.0236,-1.0249,-1.011,-1.011,-1.011,0,0,-1.0215,-1.0198,-1.0208,-1.0204,-1.0195,-1.0209,-1.0152,-1.0169,-1.0179,-1.0123,-1.0148,-1.0136,-1.0125,-1.0162,-1.0178,-1.0154,-1.0248,-1.0211,-1.0218,-1.022,-1.0243,-1.0256,-1.0268,-1.0114,-1.0113,-1.0112,0,0,-1.0297,-1.0285,-1.0313,-1.0306,-1.0293,-1.0271,-1.0279,-1.0257,-1.0247,-1.0271,-1.023,-1.0243,-1.0256,-1.0251,-1.025,-1.0334,-1.0302,-1.0337,-1.0393,-1.0419,-1.043,-1.0439,-1.0471,-1.0483,-1.0343,-1.0343,-1.0343,0,-1.035,-1.0368,-1.0331,-1.0351,-1.0352,-1.0302,-1.0331,-1.0326,-1.0316,-1.0318,-1.0292,-1.031,-1.0299,-1.0336,-1.0357,-1.0357,-1.0365,-1.0339,-1.0431,-1.044,-1.0449,-1.0479,-1.0491,-1.0348,-1.0347,-1.0347,-1.0346,0,-1.0435,-1.0449,-1.0473,-1.0465,-1.0468,-1.0493,-1.0461,-1.0469,-1.0445,-1.0427,-1.0455,-1.044,-1.0443,-1.045,-1.0425,-1.0484,-1.047,-1.0438,-1.0392,-1.0467,-1.0495,-1.0506,-1.0354,-1.0352,-1.0351,-1.035,0,0,-1.056,-1.0533,-1.0543,-1.054,-1.0523,-1.0534,-1.0557,-1.056,-1.0569,-1.0564,-1.0584,-1.0598,-1.057,-1.0569,-1.0544,-1.0566,-1.0637,-1.0532,-1.0531,-1.0553,-1.0703,-1.0728,-1.0742,-1.0616,-1.0618,-1.0619,-1.0704,0,-1.0639,-1.0677,-1.0646,-1.069,-1.0703,-1.0657,-1.0678,-1.0671,-1.0656,-1.0666,-1.0649,-1.0661,-1.0621,-1.0621,-1.0641,-1.0624,-1.0666,-1.0617,-1.0636,-1.0637,-1.0641,-1.0756,-1.0782,-1.0863,-1.0715,-1.0717,-1.0718,0,-1.0736,-1.0737,-1.0782,-1.0765,-1.077,-1.0789,-1.079,-1.08,-1.0792,-1.078,-1.0781,-1.0751,-1.0774,-1.0729,-1.0762,-1.073,-1.0736,-1.0729,-1.0731,-1.0733,-1.0682,-1.0762,-1.0887,-1.0901,-1.0734,-1.0733,-1.0732,0,-1.0825,-1.0837,-1.0867,-1.0865,-1.0846,-1.0861,-1.0853,-1.0843,-1.0848,-1.085,-1.0853,-1.0857,-1.086,-1.0865,-1.0838,-1.0807,-1.0876,-1.0828,-1.0868,-1.0869,-1.0885,-1.0885,-1.1015,-1.0887,-1.0887,-1.0887,-1.0887,0,-1.0917,-1.0948,-1.0907,-1.0925,-1.0959,-1.0924,-1.0958,-1.0946,-1.0938,-1.0954,-1.0915,-1.0932,-1.0894,-1.0908,-1.0887,-1.0919,-1.092,-1.0912,-1.0907,-1.0916,-1.0918,-1.092,-1.0915,-1.089,-1.0889,-1.0889,-1.0888,0,-1.1023,-1.0996,-1.1026,-1.1006,-1.1001,-1.1027,-1.101,-1.1027,-1.101,-1.1032,-1.1035,-1.1008,-1.1022,-1.0995,-1.1006,-1.0992,-1.1038,-1.1023,-1.1041,-1.1037,-1.1079,-1.1076,-1.1217,-1.1235,-1.1094,-1.1095,-1.1097,0,-1.1084,-1.1106,-1.1089,-1.1097,-1.1092,-1.1105,-1.111,-1.1077,-1.1084,-1.1079,-1.1097,-1.1108,-1.1114,-1.1139,-1.1122,-1.113,-1.1116,-1.1165,-1.1117,-1.1127,-1.1119,-1.1119,-1.1122,-1.1175,-1.1177,-1.1178,-1.1179,0,-1.1196,-1.1182,-1.119,-1.1195,-1.1202,-1.1204,-1.1203,-1.1213,-1.1178,-1.1188,-1.1202,-1.1208,-1.1219,-1.1231,-1.1236,-1.123,-1.12,-1.1194,-1.1205,-1.1215,-1.1226,-1.1223,-1.1069,-1.1191,-1.119,-1.1189,-1.1189,-1.1188,-1.1282,-1.1301,-1.1292,-1.1303,-1.13,-1.13,-1.1316,-1.1302,-1.1312,-1.1319,-1.1299,-1.1318,-1.1313,-1.1316,-1.1313,-1.1329,-1.1307,-1.1322,-1.1325,-1.133,-1.1338,-1.1223,-1.133,-1.1329,-1.1329,-1.1328,-1.1328,0,-1.1394,-1.1386,-1.1397,-1.1398,-1.1407,-1.1378,-1.1376,-1.1387,-1.1404,-1.1401,-1.1409,-1.1426,-1.1438,-1.1423,-1.1432,-1.1448,-1.1435,-1.1452,-1.1451,-1.1451,-1.1355,-1.1346,-1.1463,-1.1463,-1.1463,-1.1463,-1.1463,-1.1463,-1.1453,-1.1484,-1.147,-1.15,-1.1492,-1.151,-1.1512,-1.1514,-1.1512,-1.1533,-1.1543,-1.1532,-1.1525,-1.1534,-1.1545,-1.154,-1.1546,-1.1569,-1.1559,-1.147,-1.1457,-1.1445,-1.1436,-1.157,-1.157,-1.1654,-1.1655,-1.1655]},{"header":{"parameterUnit":"m.s-1","parameterCategory":1,"la1":30.2991,"la2":30.254,"lo1":-89.0895,"lo2":-89.0444,"dy":0.0017,"dx":0.0017,"nx":28,"ny":28,"refTime":"2025-09-11T03:00:00:Z","depth":0,"parameterNumber":3,"parameterNumberName":"V-component_of_WINDS"},"data":[0,0,0,0,0,0,0,0,0,0,0,0,0,0,0,0,0,0,0,0,0,0,0,0,0,0,0,0,0,0,0,0,0,0,0,0,0,0,0,0,0,0,0,0,0,0,0,0,0,0,0,0,0,0,0,0,0,0,2.7912,2.7912,0,2.794,2.794,2.7941,2.7929,2.7928,2.7928,2.7927,2.7954,2.7955,2.7957,0,0,0,0,0,0,0,0,0,0,0,0,0,2.7849,2.785,2.7912,2.7913,2.7913,2.794,2.794,2.7941,2.7929,2.7928,2.7928,2.7927,2.7954,2.7955,2.7957,0,0,0,0,0,0,0,0,0,0,0,0,0,2.7876,2.785,2.7912,2.791,2.7911,2.794,2.794,2.7941,2.7929,2.7928,2.7927,2.7926,2.7953,2.7955,2.7957,2.7989,0,0,2.7963,2.7964,0,0,0,0,0,0,0,0,2.7875,2.7879,2.791,2.7911,2.7911,2.793,2.7928,2.7957,2.793,2.7922,2.7927,2.7926,2.7947,2.7949,2.7957,2.799,2.7991,2.7963,2.7964,2.7965,2.7966,0,0,0,0,0,0,0,2.7873,2.7877,2.7923,2.7911,2.7911,2.7908,2.7911,2.7933,2.794,2.7923,2.7922,2.7926,2.7947,2.7955,2.7957,2.7992,2.7963,2.7965,2.7966,2.7967,2.8053,2.8054,0,0,0,0,0,0,2.7871,2.7876,2.7922,2.7924,2.789,2.791,2.7913,2.7925,2.7939,2.7941,2.7926,2.7925,2.7952,2.7955,2.7958,2.7996,2.7965,2.7967,2.7968,2.8052,2.8053,2.8055,0,0,0,0,0,0,2.787,2.7875,2.7921,2.79,2.7905,2.7912,2.7925,2.7926,2.7934,2.7942,2.7943,2.7933,2.7951,2.7955,2.7981,2.7996,2.7968,2.797,2.8051,2.8053,2.8054,2.8072,0,0,0,0,0,0,2.7868,2.7875,2.7887,2.79,2.7907,2.7944,2.7926,2.7927,2.7937,2.7936,2.7949,2.795,2.7951,2.7979,2.7983,2.7999,2.7971,2.8049,2.8052,2.8054,2.807,2.8074,2.8077,0,0,0,0,0,2.7866,2.7891,2.7888,2.7893,2.7922,2.7945,2.7949,2.7949,2.7939,2.7951,2.7956,2.795,2.7995,2.7981,2.7987,2.8003,2.8048,2.8051,2.8053,2.8068,2.8073,2.8077,0,0,0,0,0,0,2.7878,2.7892,2.7889,2.7919,2.7931,2.7943,2.7958,2.7955,2.7969,2.7967,2.7967,2.797,2.7997,2.8003,2.7988,2.8035,2.802,2.8024,2.8029,2.8034,2.8038,2.8035,2.7973,0,0,0,0,0,2.7885,2.7903,2.7914,2.7939,2.7946,2.7951,2.7961,2.7961,2.7973,2.7978,2.7985,2.7997,2.8014,2.8025,2.8041,2.8072,2.8074,2.8086,2.8089,2.8092,2.8095,2.8111,2.8116,2.8063,2.8063,2.8063,0,0,2.7898,2.7908,2.7919,2.7942,2.7951,2.7969,2.7955,2.7975,2.7988,2.7981,2.8006,2.8012,2.8025,2.8054,2.8067,2.8059,2.811,2.8095,2.8098,2.8099,2.8114,2.8119,2.8124,2.8064,2.8064,2.8064,0,0,2.793,2.794,2.7962,2.7972,2.7987,2.7991,2.7996,2.8009,2.8013,2.8038,2.8033,2.8049,2.8078,2.8088,2.8096,2.8135,2.8128,2.814,2.8158,2.8174,2.8179,2.8182,2.8195,2.8199,2.8143,2.8143,2.8143,0,2.7944,2.7972,2.7974,2.7994,2.8004,2.8,2.8022,2.8031,2.805,2.8057,2.8049,2.8086,2.8095,2.8125,2.8135,2.8142,2.8148,2.8137,2.8178,2.8182,2.8185,2.8197,2.8202,2.8144,2.8144,2.8144,2.8144,0,2.7988,2.8007,2.8023,2.8042,2.8054,2.8076,2.8081,2.8093,2.8092,2.8097,2.8123,2.8134,2.8152,2.8159,2.8159,2.819,2.8185,2.8178,2.8162,2.8191,2.8202,2.8207,2.8146,2.8145,2.8145,2.8145,0,0,2.8027,2.8048,2.8053,2.8062,2.8079,2.8093,2.8115,2.8133,2.8143,2.8157,2.8174,2.82,2.8193,2.8203,2.8204,2.8218,2.8247,2.8209,2.8209,2.8214,2.8281,2.8285,2.829,2.8244,2.8245,2.8246,2.8279,0,2.8059,2.8097,2.81,2.8133,2.815,2.8147,2.8166,2.8178,2.8183,2.8199,2.8205,2.8223,2.8214,2.8219,2.8234,2.824,2.826,2.8238,2.8259,2.8259,2.8253,2.8296,2.83,2.8331,2.8284,2.8285,2.8285,0,2.8102,2.8117,2.8152,2.8167,2.8174,2.8191,2.8208,2.8223,2.8237,2.824,2.8252,2.8251,2.8273,2.8259,2.8289,2.8274,2.8283,2.8288,2.8289,2.8289,2.8272,2.8296,2.8342,2.8346,2.8292,2.8292,2.8291,0,2.8125,2.8155,2.818,2.8187,2.8205,2.8217,2.8225,2.8238,2.8249,2.8264,2.8271,2.8289,2.8298,2.8311,2.8315,2.8305,2.8344,2.8331,2.8347,2.8346,2.8353,2.8352,2.8399,2.8362,2.8362,2.8362,2.8362,0,2.816,2.8181,2.819,2.8205,2.8229,2.8233,2.8256,2.8264,2.8276,2.8292,2.8291,2.8306,2.8311,2.8327,2.8331,2.8354,2.8359,2.8361,2.8361,2.836,2.836,2.8364,2.8362,2.8363,2.8363,2.8363,2.8363,0,2.8188,2.8195,2.8222,2.8237,2.8242,2.8259,2.8272,2.8286,2.8292,2.8313,2.8318,2.8327,2.8346,2.8352,2.8375,2.8377,2.8404,2.8404,2.84,2.8399,2.8414,2.8412,2.8464,2.8471,2.8431,2.8432,2.8432,0,2.8209,2.8225,2.8243,2.8254,2.8262,2.828,2.8292,2.8297,2.8309,2.8327,2.8339,2.8358,2.8373,2.8404,2.8412,2.843,2.8429,2.8446,2.8431,2.8429,2.8427,2.8425,2.8427,2.8448,2.8448,2.8448,2.8449,0,2.8245,2.8248,2.8264,2.8282,2.8296,2.8311,2.8325,2.8334,2.8341,2.8355,2.8374,2.8386,2.841,2.8429,2.8447,2.8455,2.8453,2.8454,2.8458,2.8456,2.8452,2.8453,2.8405,2.8452,2.8452,2.8451,2.8451,2.8451,2.8269,2.8283,2.8298,2.8316,2.8328,2.8341,2.8355,2.8364,2.8381,2.84,2.8403,2.8424,2.8438,2.8463,2.8472,2.8488,2.8483,2.849,2.8491,2.8492,2.8493,2.8452,2.8492,2.8492,2.8492,2.8492,2.8492,0,2.8303,2.8313,2.833,2.835,2.8365,2.8363,2.8379,2.8391,2.841,2.8423,2.8439,2.8462,2.848,2.8491,2.851,2.8521,2.852,2.8525,2.8523,2.8525,2.8497,2.8491,2.8525,2.8525,2.8525,2.8525,2.8525,2.8525,2.8323,2.8346,2.8352,2.8381,2.8391,2.8412,2.8421,2.8433,2.8444,2.847,2.8485,2.8493,2.8505,2.8525,2.8542,2.8545,2.8551,2.8556,2.8558,2.8531,2.8527,2.8524,2.8518,2.8558,2.8558,2.8585,2.8585,2.8585]}]]